Time,TemperatureF,DewpointF,PressureIn,WindDirection,WindDirectionDegrees,WindSpeedMPH,WindSpeedGustMPH,Humidity,HourlyPrecipIn,Conditions,Clouds,dailyrainin,SolarRadiationWatts/m^2,SoftwareType,DateUTC
2013-03-06 00:00:00,34.5,31.3,29.99,ENE,76,2.0,5.0,88,0.00,,OVC021,0.00,0.00,VWS V14.01,2013-03-06 05:00:00,
2013-03-06 00:05:00,34.4,31.2,29.99,ENE,60,3.0,5.0,88,0.00,,OVC021,0.00,0.00,VWS V14.01,2013-03-06 05:05:00,
2013-03-06 00:10:00,34.2,31.0,29.99,NNE,30,3.0,6.0,88,0.00,,OVC021,0.00,0.00,VWS V14.01,2013-03-06 05:10:00,
2013-03-06 00:15:00,34.1,30.9,29.99,North,360,0.0,6.0,88,0.00,,OVC021,0.00,0.00,VWS V14.01,2013-03-06 05:15:00,
2013-03-06 00:20:00,34.1,30.9,29.99,North,360,1.0,2.0,88,0.00,,OVC021,0.00,0.00,VWS V14.01,2013-03-06 05:20:00,
2013-03-06 00:25:00,34.0,30.8,29.99,North,360,2.0,4.0,88,0.00,,OVC021,0.00,0.00,VWS V14.01,2013-03-06 05:25:00,
2013-03-06 00:30:00,33.9,31.0,29.99,NE,43,3.0,4.0,89,0.00,,OVC021,0.00,0.00,VWS V14.01,2013-03-06 05:30:00,
2013-03-06 00:35:00,33.9,31.0,29.99,NE,36,1.0,4.0,89,0.00,,OVC021,0.00,0.00,VWS V14.01,2013-03-06 05:35:00,
2013-03-06 00:40:00,34.0,31.1,29.99,NNE,24,1.0,6.0,89,0.00,,OVC021,0.00,0.00,VWS V14.01,2013-03-06 05:40:00,
2013-03-06 00:45:00,34.2,31.3,29.99,NE,34,6.0,9.0,89,0.00,,OVC021,0.00,0.00,VWS V14.01,2013-03-06 05:45:00,
2013-03-06 00:50:00,34.3,31.4,29.99,ENE,59,4.0,6.0,89,0.00,,OVC021,0.00,0.00,VWS V14.01,2013-03-06 05:50:00,
2013-03-06 00:55:00,34.4,31.8,29.99,NE,40,5.0,10.0,90,0.00,,OVC021,0.00,0.00,VWS V14.01,2013-03-06 05:55:00,
2013-03-06 01:00:00,34.4,31.8,29.98,NE,52,2.0,12.0,90,0.00,,OVC021,0.00,0.00,VWS V14.01,2013-03-06 06:00:00,
2013-03-06 01:05:00,34.5,31.9,29.98,ENE,57,4.0,8.0,90,0.00,,OVC021,0.00,0.00,VWS V14.01,2013-03-06 06:05:00,
2013-03-06 01:10:00,34.6,32.0,29.98,NE,53,5.0,10.0,90,0.00,,OVC021,0.00,0.00,VWS V14.01,2013-03-06 06:10:00,
2013-03-06 01:15:00,34.6,32.0,29.98,ENE,59,1.0,6.0,90,0.00,,OVC021,0.00,0.00,VWS V14.01,2013-03-06 06:15:00,
2013-03-06 01:20:00,34.6,32.0,29.98,NNE,13,1.0,8.0,90,0.00,,OVC021,0.00,0.00,VWS V14.01,2013-03-06 06:20:00,
2013-03-06 01:25:00,34.7,32.1,29.98,NE,44,1.0,10.0,90,0.00,,OVC021,0.00,0.00,VWS V14.01,2013-03-06 06:25:00,
2013-03-06 01:30:00,34.7,32.1,29.98,NE,56,0.0,7.0,90,0.00,,OVC021,0.00,0.00,VWS V14.01,2013-03-06 06:30:00,
2013-03-06 01:35:00,34.7,32.1,29.98,NE,55,2.0,5.0,90,0.00,,OVC021,0.00,0.00,VWS V14.01,2013-03-06 06:35:00,
2013-03-06 01:40:00,34.8,32.5,29.98,ENE,64,3.0,6.0,91,0.00,,OVC021,0.00,0.00,VWS V14.01,2013-03-06 06:40:00,
2013-03-06 01:45:00,35.0,32.6,29.98,ENE,57,1.0,9.0,91,0.00,,OVC021,0.00,0.00,VWS V14.01,2013-03-06 06:45:00,
2013-03-06 01:50:00,35.0,32.6,29.98,NE,51,4.0,6.0,91,0.00,,OVC021,0.00,0.00,VWS V14.01,2013-03-06 06:50:00,
2013-03-06 01:55:00,35.1,32.7,29.98,NE,44,6.0,10.0,91,0.00,,OVC021,0.00,0.00,VWS V14.01,2013-03-06 06:55:00,
2013-03-06 02:00:00,35.1,32.7,29.98,NE,56,1.0,8.0,91,0.00,,OVC021,0.00,0.00,VWS V14.01,2013-03-06 07:00:00,
2013-03-06 02:05:00,35.1,32.7,29.98,East,81,3.0,8.0,91,0.00,,OVC021,0.00,0.00,VWS V14.01,2013-03-06 07:05:00,
2013-03-06 02:10:00,35.2,32.8,29.98,East,82,3.0,6.0,91,0.00,,OVC021,0.00,0.00,VWS V14.01,2013-03-06 07:10:00,
2013-03-06 02:15:00,35.3,32.9,29.98,NNE,17,3.0,11.0,91,0.00,,OVC021,0.00,0.00,VWS V14.01,2013-03-06 07:15:00,
2013-03-06 02:20:00,35.4,33.0,29.99,ENE,61,1.0,8.0,91,0.00,,OVC021,0.00,0.00,VWS V14.01,2013-03-06 07:20:00,
2013-03-06 02:25:00,35.4,33.0,29.99,ENE,73,3.0,4.0,91,0.00,,OVC021,0.00,0.00,VWS V14.01,2013-03-06 07:25:00,
2013-03-06 02:30:00,35.5,33.1,29.99,ENE,69,3.0,10.0,91,0.00,,OVC021,0.00,0.00,VWS V14.01,2013-03-06 07:30:00,
2013-03-06 02:35:00,35.6,33.2,29.99,ENE,62,3.0,8.0,91,0.00,,OVC021,0.00,0.00,VWS V14.01,2013-03-06 07:35:00,
2013-03-06 02:40:00,35.6,33.2,29.99,ENE,67,1.0,11.0,91,0.00,,OVC021,0.00,0.00,VWS V14.01,2013-03-06 07:40:00,
2013-03-06 02:45:00,35.6,33.2,29.99,East,83,8.0,13.0,91,0.00,,OVC021,0.00,0.00,VWS V14.01,2013-03-06 07:45:00,
2013-03-06 02:50:00,35.7,33.3,30.00,ENE,69,5.0,8.0,91,0.00,,OVC021,0.00,0.00,VWS V14.01,2013-03-06 07:50:00,
2013-03-06 02:55:00,35.6,33.2,30.00,NNE,32,6.0,12.0,91,0.00,,OVC021,0.00,0.00,VWS V14.01,2013-03-06 07:55:00,
2013-03-06 03:00:00,35.6,33.2,30.00,NE,36,4.0,8.0,91,0.01,,OVC021,0.01,0.00,VWS V14.01,2013-03-06 08:00:00,
2013-03-06 03:05:00,35.4,33.0,30.00,ENE,65,2.0,14.0,91,0.01,,OVC021,0.01,0.00,VWS V14.01,2013-03-06 08:05:00,
2013-03-06 03:10:00,35.3,32.9,30.00,NE,49,4.0,9.0,91,0.01,,OVC021,0.01,0.00,VWS V14.01,2013-03-06 08:10:00,
2013-03-06 03:15:00,35.2,32.8,30.00,ENE,71,0.0,6.0,91,0.01,,OVC021,0.01,0.00,VWS V14.01,2013-03-06 08:15:00,
2013-03-06 03:20:00,35.1,32.7,30.00,NE,40,2.0,8.0,91,0.01,,OVC021,0.01,0.00,VWS V14.01,2013-03-06 08:20:00,
2013-03-06 03:25:00,35.0,32.6,30.00,NE,40,3.0,7.0,91,0.01,,OVC021,0.01,0.00,VWS V14.01,2013-03-06 08:25:00,
2013-03-06 03:30:00,34.9,32.5,30.00,NNE,30,0.0,6.0,91,0.01,,OVC021,0.01,0.00,VWS V14.01,2013-03-06 08:30:00,
2013-03-06 03:35:00,34.8,32.5,30.00,NNE,25,2.0,7.0,91,0.01,,OVC021,0.01,0.00,VWS V14.01,2013-03-06 08:35:00,
2013-03-06 03:40:00,34.8,32.7,30.00,NE,38,3.0,8.0,92,0.01,,OVC021,0.01,0.00,VWS V14.01,2013-03-06 08:40:00,
2013-03-06 03:45:00,34.7,32.6,30.00,NE,56,0.0,7.0,92,0.01,,OVC021,0.01,0.00,VWS V14.01,2013-03-06 08:45:00,
2013-03-06 03:50:00,34.6,32.5,30.00,NE,38,4.0,9.0,92,0.01,,OVC021,0.01,0.00,VWS V14.01,2013-03-06 08:50:00,
2013-03-06 03:55:00,34.6,32.5,30.00,ENE,57,2.0,7.0,92,0.01,,OVC021,0.01,0.00,VWS V14.01,2013-03-06 08:55:00,
2013-03-06 04:00:00,34.5,32.4,30.00,NE,53,5.0,7.0,92,0.01,,OVC021,0.01,0.00,VWS V14.01,2013-03-06 09:00:00,
2013-03-06 04:05:00,34.6,32.5,30.00,ENE,71,7.0,10.0,92,0.00,,OVC021,0.01,0.00,VWS V14.01,2013-03-06 09:05:00,
2013-03-06 04:10:00,34.9,32.8,30.00,ENE,78,6.0,11.0,92,0.00,,OVC021,0.01,0.00,VWS V14.01,2013-03-06 09:10:00,
2013-03-06 04:15:00,35.1,33.0,30.00,ENE,69,4.0,11.0,92,0.00,,OVC021,0.01,0.00,VWS V14.01,2013-03-06 09:15:00,
2013-03-06 04:20:00,35.2,33.1,30.00,ENE,67,5.0,11.0,92,0.00,,OVC021,0.01,0.00,VWS V14.01,2013-03-06 09:20:00,
2013-03-06 04:25:00,35.3,33.2,30.00,NE,49,2.0,6.0,92,0.00,,OVC021,0.01,0.00,VWS V14.01,2013-03-06 09:25:00,
2013-03-06 04:30:00,35.2,33.1,30.00,East,83,4.0,5.0,92,0.00,,OVC021,0.01,0.00,VWS V14.01,2013-03-06 09:30:00,
2013-03-06 04:35:00,35.3,33.2,29.99,East,79,5.0,10.0,92,0.00,,OVC021,0.01,0.00,VWS V14.01,2013-03-06 09:35:00,
2013-03-06 04:40:00,35.5,33.4,30.00,East,79,8.0,11.0,92,0.00,,OVC021,0.01,0.00,VWS V14.01,2013-03-06 09:40:00,
2013-03-06 04:45:00,35.6,33.2,30.00,ENE,77,8.0,12.0,91,0.00,,OVC021,0.01,0.00,VWS V14.01,2013-03-06 09:45:00,
2013-03-06 04:50:00,35.6,33.2,30.00,East,86,10.0,12.0,91,0.01,,OVC021,0.02,0.00,VWS V14.01,2013-03-06 09:50:00,
2013-03-06 04:55:00,35.6,33.2,30.00,ENE,74,6.0,12.0,91,0.01,,OVC021,0.02,0.00,VWS V14.01,2013-03-06 09:55:00,
2013-03-06 05:00:00,35.6,33.2,30.00,East,94,8.0,13.0,91,0.01,,OVC021,0.02,0.00,VWS V14.01,2013-03-06 10:00:00,
2013-03-06 05:05:00,35.5,33.1,30.00,East,79,13.0,17.0,91,0.01,,OVC021,0.02,0.00,VWS V14.01,2013-03-06 10:05:00,
2013-03-06 05:10:00,35.5,33.1,30.00,ENE,69,10.0,17.0,91,0.01,,OVC021,0.02,0.00,VWS V14.01,2013-03-06 10:10:00,
2013-03-06 05:15:00,35.5,33.1,30.00,ENE,78,7.0,15.0,91,0.01,,OVC021,0.02,0.00,VWS V14.01,2013-03-06 10:15:00,
2013-03-06 05:20:00,35.4,33.0,30.00,East,94,11.0,18.0,91,0.02,,OVC021,0.03,0.00,VWS V14.01,2013-03-06 10:20:00,
2013-03-06 05:25:00,35.3,32.9,30.00,East,92,14.0,15.0,91,0.02,,OVC021,0.03,0.00,VWS V14.01,2013-03-06 10:25:00,
2013-03-06 05:30:00,35.3,32.9,30.00,ENE,63,7.0,15.0,91,0.02,,OVC021,0.03,5.00,VWS V14.01,2013-03-06 10:30:00,
2013-03-06 05:35:00,35.3,32.9,30.00,East,92,9.0,15.0,91,0.02,,OVC021,0.03,5.00,VWS V14.01,2013-03-06 10:35:00,
2013-03-06 05:40:00,35.3,32.9,30.02,ENE,69,6.0,13.0,91,0.02,,OVC021,0.03,11.00,VWS V14.01,2013-03-06 10:40:00,
2013-03-06 05:45:00,35.4,33.0,30.00,East,91,11.0,14.0,91,0.02,,OVC021,0.03,9.00,VWS V14.01,2013-03-06 10:45:00,
2013-03-06 05:50:00,35.5,33.1,30.01,East,101,5.0,12.0,91,0.02,,OVC021,0.03,5.00,VWS V14.01,2013-03-06 10:50:00,
2013-03-06 05:55:00,35.6,33.2,30.01,East,84,6.0,13.0,91,0.01,,OVC021,0.03,7.00,VWS V14.01,2013-03-06 10:55:00,
2013-03-06 06:00:00,35.6,33.2,30.00,East,84,10.0,13.0,91,0.01,,OVC021,0.02,0.00,VWS V14.01,2013-03-06 11:00:00,
2013-03-06 06:01:00,35.5,33.1,30.00,SE,128,12.0,13.0,91,0.01,,OVC021,0.02,0.00,VWS V14.01,2013-03-06 11:01:00,
2013-03-06 06:03:00,35.5,33.1,30.00,East,79,13.0,17.0,91,0.01,,OVC021,0.02,0.00,VWS V14.01,2013-03-06 11:03:00,
2013-03-06 06:05:00,35.7,33.3,30.02,East,90,6.0,12.0,91,0.01,,OVC021,0.03,19.00,VWS V14.01,2013-03-06 11:05:00,
2013-03-06 06:08:00,35.5,33.1,30.00,ENE,69,10.0,17.0,91,0.01,,OVC021,0.02,0.00,VWS V14.01,2013-03-06 11:08:00,
2013-03-06 06:10:00,35.8,33.4,30.02,ESE,104,15.0,19.0,91,0.02,,OVC021,0.04,18.00,VWS V14.01,2013-03-06 11:10:00,
2013-03-06 06:13:00,35.5,33.1,30.00,ENE,69,7.0,7.0,91,0.01,,OVC021,0.02,0.00,VWS V14.01,2013-03-06 11:13:00,
2013-03-06 06:15:00,35.9,33.5,30.02,ENE,78,12.0,17.0,91,0.02,,OVC021,0.04,16.00,VWS V14.01,2013-03-06 11:15:00,
2013-03-06 06:18:00,35.4,33.0,30.00,East,94,12.0,12.0,91,0.02,,OVC021,0.03,0.00,VWS V14.01,2013-03-06 11:18:00,
2013-03-06 06:20:00,35.9,33.5,30.03,East,80,8.0,14.0,91,0.02,,OVC021,0.04,19.00,VWS V14.01,2013-03-06 11:20:00,
2013-03-06 06:23:00,35.3,32.9,30.00,East,88,10.0,15.0,91,0.02,,OVC021,0.03,0.00,VWS V14.01,2013-03-06 11:23:00,
2013-03-06 06:25:00,35.9,33.5,30.03,ENE,73,10.0,13.0,91,0.01,,OVC021,0.04,21.00,VWS V14.01,2013-03-06 11:25:00,
2013-03-06 06:28:00,35.3,32.9,30.00,East,81,7.0,9.0,91,0.02,,OVC021,0.03,5.00,VWS V14.01,2013-03-06 11:28:00,
2013-03-06 06:30:00,36.0,33.4,30.03,East,98,15.0,17.0,90,0.01,,OVC021,0.04,21.00,VWS V14.01,2013-03-06 11:30:00,
2013-03-06 06:33:00,35.3,32.9,30.00,East,82,4.0,9.0,91,0.02,,OVC021,0.03,5.00,VWS V14.01,2013-03-06 11:33:00,
2013-03-06 06:35:00,36.0,33.4,30.03,ENE,69,5.0,15.0,90,0.01,,OVC021,0.04,26.00,VWS V14.01,2013-03-06 11:35:00,
2013-03-06 06:38:00,35.3,32.9,30.02,East,90,7.0,10.0,91,0.02,,OVC021,0.03,11.00,VWS V14.01,2013-03-06 11:38:00,
2013-03-06 06:40:00,35.9,33.3,30.03,East,91,12.0,18.0,90,0.01,,OVC021,0.04,26.00,VWS V14.01,2013-03-06 11:40:00,
2013-03-06 06:43:00,35.4,33.0,30.01,East,98,11.0,12.0,91,0.02,,OVC021,0.03,7.00,VWS V14.01,2013-03-06 11:43:00,
2013-03-06 06:45:00,35.9,33.0,30.04,East,79,14.0,21.0,89,0.01,,OVC021,0.04,37.00,VWS V14.01,2013-03-06 11:45:00,
2013-03-06 06:49:00,35.6,33.2,30.01,East,83,6.0,8.0,91,0.01,,OVC021,0.03,7.00,VWS V14.01,2013-03-06 11:49:00,
2013-03-06 06:50:00,35.9,33.0,30.04,ENE,77,13.0,18.0,89,0.01,,OVC021,0.04,40.00,VWS V14.01,2013-03-06 11:50:00,
2013-03-06 06:54:00,35.6,33.2,30.01,ENE,72,8.0,13.0,91,0.01,,OVC021,0.03,7.00,VWS V14.01,2013-03-06 11:54:00,
2013-03-06 06:55:00,36.0,33.1,30.04,East,84,14.0,18.0,89,0.01,,OVC021,0.04,47.00,VWS V14.01,2013-03-06 11:55:00,
2013-03-06 06:59:00,35.6,33.2,30.01,East,87,6.0,8.0,91,0.01,,OVC021,0.03,14.00,VWS V14.01,2013-03-06 11:59:00,
2013-03-06 07:00:00,36.0,33.1,30.04,ENE,76,7.0,19.0,89,0.01,,OVC021,0.04,47.00,VWS V14.01,2013-03-06 12:00:00,
2013-03-06 07:04:00,35.7,33.3,30.02,NE,50,6.0,13.0,91,0.01,,OVC021,0.03,18.00,VWS V14.01,2013-03-06 12:04:00,
2013-03-06 07:05:00,36.1,32.9,30.04,East,80,8.0,17.0,88,0.01,,OVC021,0.04,42.00,VWS V14.01,2013-03-06 12:05:00,
2013-03-06 07:09:00,35.9,33.5,30.02,ESE,113,13.0,17.0,91,0.02,,OVC021,0.04,18.00,VWS V14.01,2013-03-06 12:09:00,
2013-03-06 07:10:00,36.2,33.0,30.04,ENE,74,12.0,17.0,88,0.01,,OVC021,0.04,67.00,VWS V14.01,2013-03-06 12:10:00,
2013-03-06 07:14:00,35.9,33.5,30.02,East,90,7.0,12.0,91,0.02,,OVC021,0.04,21.00,VWS V14.01,2013-03-06 12:14:00,
2013-03-06 07:15:00,36.4,32.9,30.03,East,90,7.0,19.0,87,0.00,,OVC021,0.04,77.00,VWS V14.01,2013-03-06 12:15:00,
2013-03-06 07:19:00,36.0,33.6,30.02,East,79,10.0,11.0,91,0.01,,OVC021,0.04,18.00,VWS V14.01,2013-03-06 12:19:00,
2013-03-06 07:20:00,36.6,32.8,30.04,ENE,72,15.0,24.0,86,0.00,,OVC021,0.04,93.00,VWS V14.01,2013-03-06 12:20:00,
2013-03-06 07:25:00,36.0,33.6,30.03,East,84,6.0,11.0,91,0.01,,OVC021,0.04,23.00,VWS V14.01,2013-03-06 12:25:00,
2013-03-06 07:30:00,36.0,33.4,30.03,ESE,103,7.0,15.0,90,0.01,,OVC021,0.04,25.00,VWS V14.01,2013-03-06 12:30:00,
2013-03-06 07:35:00,36.0,33.4,30.03,ENE,60,7.0,14.0,90,0.01,,OVC021,0.04,30.00,VWS V14.01,2013-03-06 12:35:00,
2013-03-06 07:40:00,35.9,33.3,30.04,ENE,65,17.0,17.0,90,0.01,,OVC021,0.04,28.00,VWS V14.01,2013-03-06 12:40:00,
2013-03-06 07:45:00,35.9,33.0,30.04,East,82,6.0,15.0,89,0.01,,OVC021,0.04,44.00,VWS V14.01,2013-03-06 12:45:00,
2013-03-06 07:50:00,35.9,33.0,30.04,East,85,11.0,15.0,89,0.01,,OVC021,0.04,44.00,VWS V14.01,2013-03-06 12:50:00,
2013-03-06 07:55:00,36.0,33.1,30.04,ESE,113,14.0,19.0,89,0.01,,OVC021,0.04,46.00,VWS V14.01,2013-03-06 12:55:00,
2013-03-06 08:00:00,36.1,32.9,30.04,ENE,78,6.0,11.0,88,0.01,,OVC021,0.04,47.00,VWS V14.01,2013-03-06 13:00:00,
2013-03-06 08:05:00,36.2,33.0,30.03,East,83,5.0,15.0,88,0.01,,OVC021,0.04,53.00,VWS V14.01,2013-03-06 13:05:00,
2013-03-06 08:10:00,36.3,32.8,30.03,ENE,59,13.0,19.0,87,0.00,,OVC021,0.04,74.00,VWS V14.01,2013-03-06 13:10:00,
2013-03-06 08:15:00,37.2,31.3,30.03,ENE,71,8.0,19.0,79,0.00,,OVC021,0.04,121.00,VWS V14.01,2013-03-06 13:15:00,
2013-03-06 08:16:00,36.5,33.0,30.03,NE,51,18.0,22.0,87,0.00,,OVC021,0.04,97.00,VWS V14.01,2013-03-06 13:16:00,
2013-03-06 08:20:00,37.2,30.7,30.04,ENE,74,23.0,28.0,77,0.00,,OVC021,0.04,125.00,VWS V14.01,2013-03-06 13:20:00,
2013-03-06 08:21:00,36.8,32.7,30.03,ENE,76,14.0,20.0,85,0.00,,OVC021,0.04,109.00,VWS V14.01,2013-03-06 13:21:00,
2013-03-06 08:25:00,36.7,30.8,30.04,East,89,20.0,23.0,79,0.00,,OVC021,0.04,88.00,VWS V14.01,2013-03-06 13:25:00,
2013-03-06 08:26:00,37.0,32.6,30.03,ESE,103,14.0,15.0,84,0.00,,OVC021,0.04,139.00,VWS V14.01,2013-03-06 13:26:00,
2013-03-06 08:30:00,36.2,30.9,30.04,ENE,65,15.0,22.0,81,0.00,,OVC021,0.04,146.00,VWS V14.01,2013-03-06 13:30:00,
2013-03-06 08:31:00,37.2,32.2,30.05,East,80,14.0,21.0,82,0.00,,OVC021,0.04,69.00,VWS V14.01,2013-03-06 13:31:00,
2013-03-06 08:35:00,36.4,31.4,30.04,East,98,7.0,15.0,82,0.00,,OVC021,0.04,127.00,VWS V14.01,2013-03-06 13:35:00,
2013-03-06 08:36:00,37.1,31.8,30.03,NE,54,14.0,25.0,81,0.00,,OVC021,0.04,88.00,VWS V14.01,2013-03-06 13:36:00,
2013-03-06 08:40:00,36.6,31.3,30.04,ENE,78,13.0,21.0,81,0.00,,OVC021,0.04,139.00,VWS V14.01,2013-03-06 13:40:00,
2013-03-06 08:41:00,36.9,31.6,30.03,ENE,61,17.0,24.0,81,0.00,,OVC021,0.04,113.00,VWS V14.01,2013-03-06 13:41:00,
2013-03-06 08:45:00,36.9,31.0,30.05,ENE,65,7.0,25.0,79,0.00,,OVC021,0.04,206.00,VWS V14.01,2013-03-06 13:45:00,
2013-03-06 08:46:00,36.9,31.6,30.03,East,88,12.0,18.0,81,0.00,,OVC021,0.04,102.00,VWS V14.01,2013-03-06 13:46:00,
2013-03-06 08:50:00,37.2,31.3,30.05,East,80,13.0,24.0,79,0.00,,OVC021,0.04,169.00,VWS V14.01,2013-03-06 13:50:00,
2013-03-06 08:51:00,36.8,31.2,30.03,East,80,17.0,30.0,80,0.00,,OVC021,0.04,86.00,VWS V14.01,2013-03-06 13:51:00,
2013-03-06 08:55:00,37.2,31.3,30.05,East,92,11.0,22.0,79,0.00,,OVC021,0.04,118.00,VWS V14.01,2013-03-06 13:55:00,
2013-03-06 08:56:00,36.8,31.2,30.03,ESE,111,11.0,28.0,80,0.00,,OVC021,0.04,70.00,VWS V14.01,2013-03-06 13:56:00,
2013-03-06 09:00:00,36.6,31.6,30.05,East,90,20.0,25.0,82,0.00,,OVC021,0.04,227.00,VWS V14.01,2013-03-06 14:00:00,
2013-03-06 09:02:00,36.9,31.3,30.03,East,86,11.0,21.0,80,0.00,,OVC021,0.04,132.00,VWS V14.01,2013-03-06 14:02:00,
2013-03-06 09:05:00,36.5,31.5,30.06,ENE,65,15.0,22.0,82,0.00,,OVC021,0.04,225.00,VWS V14.01,2013-03-06 14:05:00,
2013-03-06 09:07:00,37.0,31.1,30.03,East,97,12.0,20.0,79,0.00,,OVC021,0.04,86.00,VWS V14.01,2013-03-06 14:07:00,
2013-03-06 09:10:00,36.6,31.6,30.05,ENE,58,10.0,15.0,82,0.00,,OVC021,0.04,211.00,VWS V14.01,2013-03-06 14:10:00,
2013-03-06 09:12:00,37.1,30.9,30.03,East,86,6.0,19.0,78,0.00,,OVC021,0.04,120.00,VWS V14.01,2013-03-06 14:12:00,
2013-03-06 09:15:00,36.8,31.5,30.05,East,94,14.0,22.0,81,0.00,,OVC021,0.04,155.00,VWS V14.01,2013-03-06 14:15:00,
2013-03-06 09:17:00,37.2,31.0,30.05,NE,53,15.0,18.0,78,0.00,,OVC021,0.04,130.00,VWS V14.01,2013-03-06 14:17:00,
2013-03-06 09:20:00,36.6,31.6,30.05,ENE,69,14.0,23.0,82,0.00,,OVC021,0.04,172.00,VWS V14.01,2013-03-06 14:20:00,
2013-03-06 09:22:00,36.8,30.6,30.04,East,94,19.0,23.0,78,0.00,,OVC021,0.04,84.00,VWS V14.01,2013-03-06 14:22:00,
2013-03-06 09:25:00,36.4,31.7,30.05,ESE,117,12.0,23.0,83,0.00,,OVC021,0.04,139.00,VWS V14.01,2013-03-06 14:25:00,
2013-03-06 09:27:00,36.2,30.9,30.04,ENE,62,7.0,22.0,81,0.00,,OVC021,0.04,155.00,VWS V14.01,2013-03-06 14:27:00,
2013-03-06 09:30:00,36.5,31.8,30.04,NE,34,13.0,23.0,83,0.00,,OVC021,0.04,153.00,VWS V14.01,2013-03-06 14:30:00,
2013-03-06 09:32:00,36.4,31.4,30.04,ENE,72,12.0,15.0,82,0.00,,OVC021,0.04,127.00,VWS V14.01,2013-03-06 14:32:00,
2013-03-06 09:35:00,36.6,31.6,30.04,East,83,11.0,18.0,82,0.00,,OVC021,0.04,174.00,VWS V14.01,2013-03-06 14:35:00,
2013-03-06 09:38:00,36.6,31.3,30.04,ESE,106,21.0,21.0,81,0.00,,OVC021,0.04,139.00,VWS V14.01,2013-03-06 14:38:00,
2013-03-06 09:40:00,36.6,31.6,30.04,ENE,72,21.0,22.0,82,0.00,,OVC021,0.04,174.00,VWS V14.01,2013-03-06 14:40:00,
2013-03-06 09:43:00,36.9,31.0,30.05,NE,54,8.0,25.0,79,0.00,,OVC021,0.04,206.00,VWS V14.01,2013-03-06 14:43:00,
2013-03-06 09:45:00,36.8,31.2,30.03,ENE,73,17.0,25.0,80,0.00,,OVC021,0.04,204.00,VWS V14.01,2013-03-06 14:45:00,
2013-03-06 09:48:00,37.2,31.3,30.05,East,80,13.0,24.0,79,0.00,,OVC021,0.04,169.00,VWS V14.01,2013-03-06 14:48:00,
2013-03-06 09:50:00,37.0,31.1,30.03,ENE,75,11.0,27.0,79,0.00,,OVC021,0.04,178.00,VWS V14.01,2013-03-06 14:50:00,
2013-03-06 09:53:00,37.2,31.3,30.05,East,89,18.0,19.0,79,0.00,,OVC021,0.04,118.00,VWS V14.01,2013-03-06 14:53:00,
2013-03-06 09:55:00,37.3,31.4,30.03,East,81,8.0,25.0,79,0.00,,OVC021,0.04,185.00,VWS V14.01,2013-03-06 14:55:00,
2013-03-06 09:58:00,36.6,31.6,30.05,ESE,107,13.0,16.0,82,0.00,,OVC021,0.04,227.00,VWS V14.01,2013-03-06 14:58:00,
2013-03-06 10:00:00,37.3,31.1,30.03,ESE,105,11.0,24.0,78,0.00,,OVC021,0.04,134.00,VWS V14.01,2013-03-06 15:00:00,
2013-03-06 10:03:00,36.5,31.5,30.05,East,82,12.0,15.0,82,0.00,,OVC021,0.04,225.00,VWS V14.01,2013-03-06 15:03:00,
2013-03-06 10:05:00,37.3,30.8,30.03,ENE,69,15.0,28.0,77,0.00,,OVC021,0.04,223.00,VWS V14.01,2013-03-06 15:05:00,
2013-03-06 10:08:00,36.6,31.6,30.05,ENE,58,6.0,12.0,82,0.00,,OVC021,0.04,241.00,VWS V14.01,2013-03-06 15:08:00,
2013-03-06 10:10:00,37.6,30.1,30.04,ENE,76,18.0,22.0,74,0.00,,OVC021,0.04,144.00,VWS V14.01,2013-03-06 15:10:00,
2013-03-06 10:13:00,36.8,31.5,30.05,ESE,102,15.0,23.0,81,0.00,,OVC021,0.04,137.00,VWS V14.01,2013-03-06 15:13:00,
2013-03-06 10:15:00,37.6,29.7,30.02,East,80,10.0,25.0,73,0.00,,OVC021,0.04,102.00,VWS V14.01,2013-03-06 15:15:00,
2013-03-06 10:18:00,36.6,31.6,30.05,ENE,72,6.0,14.0,82,0.00,,OVC021,0.04,199.00,VWS V14.01,2013-03-06 15:18:00,
2013-03-06 10:20:00,37.7,29.8,30.03,ESE,103,9.0,16.0,73,0.00,,OVC021,0.04,153.00,VWS V14.01,2013-03-06 15:20:00,
2013-03-06 10:24:00,36.4,31.7,30.05,NE,55,17.0,17.0,83,0.00,,OVC021,0.04,139.00,VWS V14.01,2013-03-06 15:24:00,
2013-03-06 10:25:00,37.7,29.5,30.03,ENE,76,11.0,28.0,72,0.00,,OVC021,0.04,107.00,VWS V14.01,2013-03-06 15:25:00,
2013-03-06 10:29:00,36.5,31.8,30.04,ENE,78,12.0,15.0,83,0.00,,OVC021,0.04,165.00,VWS V14.01,2013-03-06 15:29:00,
2013-03-06 10:30:00,37.8,29.6,30.03,East,81,17.0,22.0,72,0.00,,OVC021,0.04,111.00,VWS V14.01,2013-03-06 15:30:00,
2013-03-06 10:34:00,36.6,31.6,30.05,ENE,59,11.0,19.0,82,0.00,,OVC021,0.04,200.00,VWS V14.01,2013-03-06 15:34:00,
2013-03-06 10:35:00,37.8,29.9,30.03,East,85,18.0,20.0,73,0.00,,OVC021,0.04,197.00,VWS V14.01,2013-03-06 15:35:00,
2013-03-06 10:39:00,36.7,31.4,30.04,ENE,74,18.0,21.0,81,0.00,,OVC021,0.04,176.00,VWS V14.01,2013-03-06 15:39:00,
2013-03-06 10:40:00,37.9,29.4,30.02,NE,48,16.0,24.0,71,0.00,,OVC021,0.04,186.00,VWS V14.01,2013-03-06 15:40:00,
2013-03-06 10:44:00,36.9,31.3,30.04,ENE,73,15.0,18.0,80,0.00,,OVC021,0.04,207.00,VWS V14.01,2013-03-06 15:44:00,
2013-03-06 10:45:00,38.1,29.9,30.04,NE,46,13.0,18.0,72,0.00,,OVC021,0.04,169.00,VWS V14.01,2013-03-06 15:45:00,
2013-03-06 10:49:00,37.0,31.4,30.03,East,100,15.0,25.0,80,0.00,,OVC021,0.04,179.00,VWS V14.01,2013-03-06 15:49:00,
2013-03-06 10:50:00,38.0,29.5,30.02,NE,54,10.0,25.0,71,0.00,,OVC021,0.04,230.00,VWS V14.01,2013-03-06 15:50:00,
2013-03-06 10:54:00,37.3,31.4,30.03,East,97,19.0,24.0,79,0.00,,OVC021,0.04,146.00,VWS V14.01,2013-03-06 15:54:00,
2013-03-06 10:55:00,38.1,29.9,30.02,ENE,73,4.0,20.0,72,0.00,,OVC021,0.04,186.00,VWS V14.01,2013-03-06 15:55:00,
2013-03-06 10:59:00,37.4,31.2,30.03,ENE,57,11.0,19.0,78,0.00,,OVC021,0.04,148.00,VWS V14.01,2013-03-06 15:59:00,
2013-03-06 11:00:00,38.2,29.6,30.02,East,81,15.0,21.0,71,0.00,,OVC021,0.04,121.00,VWS V14.01,2013-03-06 16:00:00,
2013-03-06 11:04:00,37.4,30.9,30.03,East,81,18.0,19.0,77,0.00,,OVC021,0.04,193.00,VWS V14.01,2013-03-06 16:04:00,
2013-03-06 11:05:00,38.1,29.9,30.02,ENE,74,13.0,27.0,72,0.00,,OVC021,0.04,274.00,VWS V14.01,2013-03-06 16:05:00,
2013-03-06 11:09:00,37.6,30.1,30.03,East,88,17.0,22.0,74,0.00,,OVC021,0.04,111.00,VWS V14.01,2013-03-06 16:09:00,
2013-03-06 11:10:00,38.1,29.5,30.02,East,93,18.0,25.0,71,0.00,,OVC021,0.04,167.00,VWS V14.01,2013-03-06 16:10:00,
2013-03-06 11:15:00,37.7,29.8,30.02,East,86,10.0,13.0,73,0.00,,OVC021,0.04,134.00,VWS V14.01,2013-03-06 16:15:00,
2013-03-06 11:20:00,37.7,29.5,30.03,ENE,63,10.0,28.0,72,0.00,,OVC021,0.04,132.00,VWS V14.01,2013-03-06 16:20:00,
2013-03-06 11:25:00,37.7,29.5,30.03,NE,55,10.0,20.0,72,0.00,,OVC021,0.04,102.00,VWS V14.01,2013-03-06 16:25:00,
2013-03-06 11:30:00,37.7,29.5,30.03,ENE,62,20.0,20.0,72,0.00,,OVC021,0.04,127.00,VWS V14.01,2013-03-06 16:30:00,
2013-03-06 11:35:00,37.8,29.6,30.02,NNE,14,17.0,18.0,72,0.00,,OVC021,0.04,209.00,VWS V14.01,2013-03-06 16:35:00,
2013-03-06 11:40:00,38.0,29.5,30.02,ESE,105,13.0,18.0,71,0.00,,OVC021,0.04,209.00,VWS V14.01,2013-03-06 16:40:00,
2013-03-06 11:45:00,38.1,29.5,30.02,ENE,71,19.0,19.0,71,0.00,,OVC021,0.04,144.00,VWS V14.01,2013-03-06 16:45:00,
2013-03-06 11:50:00,38.0,29.5,30.02,East,87,8.0,20.0,71,0.00,,OVC021,0.04,244.00,VWS V14.01,2013-03-06 16:50:00,
2013-03-06 11:55:00,38.2,30.0,30.02,East,79,8.0,12.0,72,0.00,,OVC021,0.04,163.00,VWS V14.01,2013-03-06 16:55:00,
2013-03-06 12:00:00,38.1,29.5,30.02,East,96,21.0,27.0,71,0.00,,OVC021,0.04,190.00,VWS V14.01,2013-03-06 17:00:00,
2013-03-06 12:05:00,38.1,29.5,30.02,East,80,14.0,22.0,71,0.00,,OVC021,0.04,197.00,VWS V14.01,2013-03-06 17:05:00,
2013-03-06 12:10:00,37.0,31.1,30.02,ENE,69,18.0,26.0,79,0.00,,OVC021,0.04,262.00,VWS V14.01,2013-03-06 17:10:00,
2013-03-06 12:11:00,38.1,29.9,30.03,NE,54,12.0,19.0,72,0.00,,OVC021,0.04,204.00,VWS V14.01,2013-03-06 17:11:00,
2013-03-06 12:15:00,36.9,31.6,30.02,ENE,68,12.0,20.0,81,0.00,,OVC021,0.04,290.00,VWS V14.01,2013-03-06 17:15:00,
2013-03-06 12:16:00,38.0,29.8,30.01,ESE,114,14.0,25.0,72,0.00,,OVC021,0.04,151.00,VWS V14.01,2013-03-06 17:16:00,
2013-03-06 12:20:00,37.1,31.5,30.02,ENE,57,15.0,21.0,80,0.00,,OVC021,0.04,257.00,VWS V14.01,2013-03-06 17:20:00,
2013-03-06 12:21:00,38.2,30.7,30.02,ENE,74,13.0,18.0,74,0.00,,OVC021,0.04,195.00,VWS V14.01,2013-03-06 17:21:00,
2013-03-06 12:25:00,37.2,31.6,30.02,East,83,11.0,20.0,80,0.00,,OVC021,0.04,213.00,VWS V14.01,2013-03-06 17:25:00,
2013-03-06 12:26:00,38.1,30.6,30.01,ENE,74,8.0,19.0,74,0.00,,OVC021,0.04,301.00,VWS V14.01,2013-03-06 17:26:00,
2013-03-06 12:30:00,37.4,32.1,30.01,NE,52,16.0,20.0,81,0.00,,OVC021,0.04,216.00,VWS V14.01,2013-03-06 17:30:00,
2013-03-06 12:31:00,38.4,30.9,30.02,NE,54,13.0,16.0,74,0.00,,OVC021,0.04,241.00,VWS V14.01,2013-03-06 17:31:00,
2013-03-06 12:35:00,37.3,31.7,30.01,East,88,10.0,18.0,80,0.00,,OVC021,0.04,76.00,VWS V14.01,2013-03-06 17:35:00,
2013-03-06 12:36:00,38.4,30.5,30.02,NE,53,11.0,25.0,73,0.00,,OVC021,0.04,116.00,VWS V14.01,2013-03-06 17:36:00,
2013-03-06 12:40:00,36.2,31.2,30.02,ENE,73,24.0,29.0,82,0.01,,OVC021,0.05,62.00,VWS V14.01,2013-03-06 17:40:00,
2013-03-06 12:41:00,38.1,29.5,30.02,East,99,14.0,23.0,71,0.00,,OVC021,0.04,76.00,VWS V14.01,2013-03-06 17:41:00,
2013-03-06 12:45:00,34.7,31.0,30.02,ENE,65,8.0,24.0,86,0.01,,OVC021,0.05,81.00,VWS V14.01,2013-03-06 17:45:00,
2013-03-06 12:46:00,38.0,30.1,30.02,ENE,62,12.0,15.0,73,0.00,,OVC021,0.04,107.00,VWS V14.01,2013-03-06 17:46:00,
2013-03-06 12:50:00,34.3,30.8,30.01,East,79,13.0,20.0,87,0.01,,OVC021,0.05,288.00,VWS V14.01,2013-03-06 17:50:00,
2013-03-06 12:51:00,38.0,30.1,30.02,East,91,13.0,25.0,73,0.00,,OVC021,0.04,139.00,VWS V14.01,2013-03-06 17:51:00,
2013-03-06 12:55:00,34.8,31.6,30.01,East,89,11.0,18.0,88,0.01,,OVC021,0.05,267.00,VWS V14.01,2013-03-06 17:55:00,
2013-03-06 12:56:00,37.4,29.9,30.02,ESE,111,14.0,23.0,74,0.00,,OVC021,0.04,264.00,VWS V14.01,2013-03-06 17:56:00,
2013-03-06 13:00:00,35.5,31.7,30.01,ENE,64,10.0,19.0,86,0.02,,OVC021,0.06,202.00,VWS V14.01,2013-03-06 18:00:00,
2013-03-06 13:01:00,37.7,31.5,30.02,East,87,15.0,21.0,78,0.00,,OVC021,0.04,373.00,VWS V14.01,2013-03-06 18:01:00,
2013-03-06 13:05:00,35.9,31.8,30.01,ESE,105,16.0,20.0,85,0.02,,OVC021,0.06,102.00,VWS V14.01,2013-03-06 18:05:00,
2013-03-06 13:06:00,37.1,30.9,30.02,East,89,10.0,26.0,78,0.00,,OVC021,0.04,243.00,VWS V14.01,2013-03-06 18:06:00,
2013-03-06 13:10:00,36.0,31.6,30.01,East,96,19.0,32.0,84,0.02,,OVC021,0.06,76.00,VWS V14.01,2013-03-06 18:10:00,
2013-03-06 13:12:00,36.8,31.2,30.02,East,88,10.0,20.0,80,0.00,,OVC021,0.04,290.00,VWS V14.01,2013-03-06 18:12:00,
2013-03-06 13:15:00,35.9,31.8,30.01,East,88,12.0,20.0,85,0.02,,OVC021,0.06,209.00,VWS V14.01,2013-03-06 18:15:00,
2013-03-06 13:17:00,37.0,31.4,30.02,East,83,8.0,21.0,80,0.00,,OVC021,0.04,287.00,VWS V14.01,2013-03-06 18:17:00,
2013-03-06 13:20:00,36.3,32.2,30.01,ENE,73,19.0,19.0,85,0.03,,OVC021,0.07,220.00,VWS V14.01,2013-03-06 18:20:00,
2013-03-06 13:22:00,37.2,31.6,30.01,ENE,76,13.0,20.0,80,0.00,,OVC021,0.04,234.00,VWS V14.01,2013-03-06 18:22:00,
2013-03-06 13:25:00,36.7,31.7,30.01,East,81,14.0,25.0,82,0.03,,OVC021,0.07,156.00,VWS V14.01,2013-03-06 18:25:00,
2013-03-06 13:27:00,37.4,31.8,30.01,NE,38,9.0,20.0,80,0.00,,OVC021,0.04,251.00,VWS V14.01,2013-03-06 18:27:00,
2013-03-06 13:30:00,36.9,31.6,30.01,East,91,21.0,24.0,81,0.03,,OVC021,0.07,97.00,VWS V14.01,2013-03-06 18:30:00,
2013-03-06 13:32:00,37.3,31.4,30.01,NE,51,13.0,18.0,79,0.00,,OVC021,0.04,90.00,VWS V14.01,2013-03-06 18:32:00,
2013-03-06 13:35:00,36.1,31.1,30.02,East,96,12.0,29.0,82,0.04,,OVC021,0.08,128.00,VWS V14.01,2013-03-06 18:35:00,
2013-03-06 13:37:00,36.5,31.5,30.02,East,82,21.0,27.0,82,0.00,,OVC021,0.04,58.00,VWS V14.01,2013-03-06 18:37:00,
2013-03-06 13:40:00,35.4,31.4,30.02,East,84,14.0,20.0,85,0.04,,OVC021,0.08,195.00,VWS V14.01,2013-03-06 18:40:00,
2013-03-06 13:42:00,34.9,30.9,30.02,East,82,6.0,24.0,85,0.01,,OVC021,0.05,69.00,VWS V14.01,2013-03-06 18:42:00,
2013-03-06 13:45:00,35.5,31.5,30.02,ENE,78,8.0,20.0,85,0.03,,OVC021,0.08,172.00,VWS V14.01,2013-03-06 18:45:00,
2013-03-06 13:47:00,34.3,30.8,30.01,East,88,11.0,20.0,87,0.01,,OVC021,0.05,281.00,VWS V14.01,2013-03-06 18:47:00,
2013-03-06 13:50:00,35.8,31.5,30.02,East,90,8.0,15.0,84,0.03,,OVC021,0.08,79.00,VWS V14.01,2013-03-06 18:50:00,
2013-03-06 13:52:00,34.8,31.6,30.01,East,84,7.0,18.0,88,0.01,,OVC021,0.05,287.00,VWS V14.01,2013-03-06 18:52:00,
2013-03-06 13:55:00,35.8,31.5,30.02,NE,35,16.0,20.0,84,0.03,,OVC021,0.08,104.00,VWS V14.01,2013-03-06 18:55:00,
2013-03-06 13:57:00,35.5,31.7,30.01,East,87,10.0,19.0,86,0.02,,OVC021,0.06,213.00,VWS V14.01,2013-03-06 18:57:00,
2013-03-06 14:00:00,36.0,31.6,30.01,East,91,6.0,16.0,84,0.03,,OVC021,0.08,127.00,VWS V14.01,2013-03-06 19:00:00,
2013-03-06 14:03:00,35.9,31.8,30.01,ENE,77,13.0,20.0,85,0.02,,OVC021,0.06,127.00,VWS V14.01,2013-03-06 19:03:00,
2013-03-06 14:05:00,36.2,31.5,30.01,ENE,71,7.0,19.0,83,0.02,,OVC021,0.08,156.00,VWS V14.01,2013-03-06 19:05:00,
2013-03-06 14:08:00,36.0,31.6,30.01,ESE,107,21.0,32.0,84,0.02,,OVC021,0.06,76.00,VWS V14.01,2013-03-06 19:08:00,
2013-03-06 14:10:00,36.4,31.1,30.01,ENE,74,13.0,27.0,81,0.02,,OVC021,0.08,86.00,VWS V14.01,2013-03-06 19:10:00,
2013-03-06 14:13:00,35.9,31.8,30.01,East,88,12.0,20.0,85,0.02,,OVC021,0.06,209.00,VWS V14.01,2013-03-06 19:13:00,
2013-03-06 14:15:00,36.3,31.0,30.01,East,84,17.0,19.0,81,0.02,,OVC021,0.08,146.00,VWS V14.01,2013-03-06 19:15:00,
2013-03-06 14:18:00,36.3,32.2,30.01,ENE,73,19.0,19.0,85,0.03,,OVC021,0.07,220.00,VWS V14.01,2013-03-06 19:18:00,
2013-03-06 14:20:00,36.2,30.9,30.01,ENE,57,17.0,20.0,81,0.02,,OVC021,0.08,128.00,VWS V14.01,2013-03-06 19:20:00,
2013-03-06 14:23:00,36.7,31.7,30.01,East,81,14.0,25.0,82,0.03,,OVC021,0.07,156.00,VWS V14.01,2013-03-06 19:23:00,
2013-03-06 14:25:00,36.1,30.5,30.02,East,81,12.0,23.0,80,0.01,,OVC021,0.08,86.00,VWS V14.01,2013-03-06 19:25:00,
2013-03-06 14:28:00,36.9,31.6,30.01,East,91,21.0,24.0,81,0.03,,OVC021,0.07,97.00,VWS V14.01,2013-03-06 19:28:00,
2013-03-06 14:30:00,36.0,30.8,30.02,ENE,67,7.0,21.0,81,0.01,,OVC021,0.08,95.00,VWS V14.01,2013-03-06 19:30:00,
2013-03-06 14:33:00,36.1,31.1,30.02,East,96,12.0,29.0,82,0.04,,OVC021,0.08,128.00,VWS V14.01,2013-03-06 19:33:00,
2013-03-06 14:35:00,35.8,30.2,30.01,NE,36,14.0,22.0,80,0.01,,OVC021,0.08,54.00,VWS V14.01,2013-03-06 19:35:00,
2013-03-06 14:38:00,35.4,31.4,30.02,East,84,14.0,20.0,85,0.04,,OVC021,0.08,195.00,VWS V14.01,2013-03-06 19:38:00,
2013-03-06 14:40:00,35.6,30.4,30.01,East,84,15.0,28.0,81,0.00,,OVC021,0.08,65.00,VWS V14.01,2013-03-06 19:40:00,
2013-03-06 14:43:00,35.6,31.5,30.02,ENE,74,12.0,12.0,85,0.03,,OVC021,0.08,176.00,VWS V14.01,2013-03-06 19:43:00,
2013-03-06 14:45:00,35.2,30.6,30.02,East,98,12.0,29.0,83,0.00,,OVC021,0.08,53.00,VWS V14.01,2013-03-06 19:45:00,
2013-03-06 14:48:00,35.8,31.5,30.02,ENE,67,8.0,10.0,84,0.03,,OVC021,0.08,62.00,VWS V14.01,2013-03-06 19:48:00,
2013-03-06 14:50:00,34.9,30.6,30.02,ENE,78,8.0,19.0,84,0.00,,OVC021,0.08,69.00,VWS V14.01,2013-03-06 19:50:00,
2013-03-06 14:53:00,35.8,31.5,30.01,East,86,13.0,16.0,84,0.03,,OVC021,0.08,132.00,VWS V14.01,2013-03-06 19:53:00,
2013-03-06 14:55:00,34.8,30.5,30.02,ENE,65,8.0,22.0,84,0.00,,OVC021,0.08,58.00,VWS V14.01,2013-03-06 19:55:00,
2013-03-06 14:59:00,36.0,31.4,30.02,East,87,8.0,10.0,83,0.02,,OVC021,0.08,148.00,VWS V14.01,2013-03-06 19:59:00,
2013-03-06 15:00:00,34.6,30.6,30.02,NE,38,13.0,15.0,85,0.00,,OVC021,0.08,44.00,VWS V14.01,2013-03-06 20:00:00,
2013-03-06 15:04:00,36.3,31.6,30.01,East,84,7.0,14.0,83,0.02,,OVC021,0.08,139.00,VWS V14.01,2013-03-06 20:04:00,
2013-03-06 15:05:00,34.7,30.7,30.02,ENE,67,5.0,22.0,85,0.01,,OVC021,0.09,35.00,VWS V14.01,2013-03-06 20:05:00,
2013-03-06 15:09:00,36.3,31.0,30.01,ENE,57,14.0,17.0,81,0.02,,OVC021,0.08,114.00,VWS V14.01,2013-03-06 20:09:00,
2013-03-06 15:10:00,35.0,30.4,30.02,NE,46,14.0,28.0,83,0.01,,OVC021,0.09,28.00,VWS V14.01,2013-03-06 20:10:00,
2013-03-06 15:14:00,36.3,31.0,30.01,East,90,11.0,17.0,81,0.02,,OVC021,0.08,142.00,VWS V14.01,2013-03-06 20:14:00,
2013-03-06 15:15:00,35.0,30.4,30.02,NE,51,6.0,19.0,83,0.01,,OVC021,0.09,26.00,VWS V14.01,2013-03-06 20:15:00,
2013-03-06 15:19:00,36.1,30.8,30.02,ENE,65,11.0,17.0,81,0.01,,OVC021,0.08,107.00,VWS V14.01,2013-03-06 20:19:00,
2013-03-06 15:20:00,34.8,30.5,30.02,ENE,74,7.0,17.0,84,0.01,,OVC021,0.09,25.00,VWS V14.01,2013-03-06 20:20:00,
2013-03-06 15:24:00,36.0,30.8,30.02,East,90,12.0,20.0,81,0.01,,OVC021,0.08,72.00,VWS V14.01,2013-03-06 20:24:00,
2013-03-06 15:25:00,34.5,30.5,30.03,ENE,73,8.0,20.0,85,0.01,,OVC021,0.09,21.00,VWS V14.01,2013-03-06 20:25:00,
2013-03-06 15:29:00,35.9,30.6,30.01,ENE,58,11.0,21.0,81,0.01,,OVC021,0.08,90.00,VWS V14.01,2013-03-06 20:29:00,
2013-03-06 15:30:00,34.1,30.4,30.02,East,83,10.0,18.0,86,0.01,,OVC021,0.09,28.00,VWS V14.01,2013-03-06 20:30:00,
2013-03-06 15:35:00,35.7,30.1,30.01,ENE,61,6.0,20.0,80,0.00,,OVC021,0.08,62.00,VWS V14.01,2013-03-06 20:35:00,
2013-03-06 15:40:00,35.5,30.6,30.02,ENE,59,16.0,19.0,82,0.00,,OVC021,0.08,44.00,VWS V14.01,2013-03-06 20:40:00,
2013-03-06 15:45:00,35.0,30.7,30.02,ENE,75,12.0,19.0,84,0.00,,OVC021,0.08,60.00,VWS V14.01,2013-03-06 20:45:00,
2013-03-06 15:50:00,34.9,30.6,30.02,ENE,76,13.0,17.0,84,0.00,,OVC021,0.08,44.00,VWS V14.01,2013-03-06 20:50:00,
2013-03-06 15:55:00,34.7,30.7,30.02,ENE,67,15.0,15.0,85,0.00,,OVC021,0.08,46.00,VWS V14.01,2013-03-06 20:55:00,
2013-03-06 16:00:00,34.6,30.6,30.02,NE,52,6.0,15.0,85,0.01,,OVC021,0.09,42.00,VWS V14.01,2013-03-06 21:00:00,
2013-03-06 16:05:00,34.6,30.0,30.03,ENE,74,11.0,16.0,83,0.02,,OVC021,0.10,9.00,VWS V14.01,2013-03-06 21:05:00,
2013-03-06 16:06:00,34.8,30.5,30.02,ENE,68,12.0,17.0,84,0.01,,OVC021,0.09,40.00,VWS V14.01,2013-03-06 21:06:00,
2013-03-06 16:10:00,34.8,29.9,30.03,East,89,6.0,19.0,82,0.01,,OVC021,0.10,7.00,VWS V14.01,2013-03-06 21:10:00,
2013-03-06 16:11:00,35.1,30.2,30.02,ENE,69,17.0,19.0,82,0.01,,OVC021,0.09,33.00,VWS V14.01,2013-03-06 21:11:00,
2013-03-06 16:15:00,34.7,30.1,30.03,East,90,12.0,14.0,83,0.01,,OVC021,0.10,9.00,VWS V14.01,2013-03-06 21:15:00,
2013-03-06 16:16:00,34.9,30.3,30.02,NE,54,7.0,17.0,83,0.01,,OVC021,0.09,25.00,VWS V14.01,2013-03-06 21:16:00,
2013-03-06 16:20:00,34.7,30.1,30.04,East,97,15.0,24.0,83,0.01,,OVC021,0.10,7.00,VWS V14.01,2013-03-06 21:20:00,
2013-03-06 16:21:00,34.6,30.3,30.02,East,80,12.0,14.0,84,0.01,,OVC021,0.09,19.00,VWS V14.01,2013-03-06 21:21:00,
2013-03-06 16:25:00,34.6,30.0,30.04,ENE,65,11.0,28.0,83,0.01,,OVC021,0.10,0.00,VWS V14.01,2013-03-06 21:25:00,
2013-03-06 16:26:00,34.1,30.4,30.02,ENE,73,12.0,18.0,86,0.01,,OVC021,0.09,32.00,VWS V14.01,2013-03-06 21:26:00,
2013-03-06 16:30:00,34.2,29.9,30.04,ENE,69,10.0,28.0,84,0.01,,OVC021,0.10,5.00,VWS V14.01,2013-03-06 21:30:00,
2013-03-06 16:32:00,34.1,30.4,30.02,ENE,70,6.0,15.0,86,0.01,,OVC021,0.09,26.00,VWS V14.01,2013-03-06 21:32:00,
2013-03-06 16:35:00,33.8,30.1,30.04,NE,53,10.0,19.0,86,0.01,,OVC021,0.10,0.00,VWS V14.01,2013-03-06 21:35:00,
2013-03-06 16:37:00,34.3,30.6,30.02,ENE,61,11.0,17.0,86,0.01,,OVC021,0.09,21.00,VWS V14.01,2013-03-06 21:37:00,
2013-03-06 16:40:00,33.5,30.0,30.04,East,90,8.0,21.0,87,0.01,,OVC021,0.10,0.00,VWS V14.01,2013-03-06 21:40:00,
2013-03-06 16:42:00,34.4,30.4,30.02,East,80,7.0,24.0,85,0.02,,OVC021,0.10,21.00,VWS V14.01,2013-03-06 21:42:00,
2013-03-06 16:45:00,33.4,30.2,30.04,East,99,5.0,15.0,88,0.01,,OVC021,0.10,0.00,VWS V14.01,2013-03-06 21:45:00,
2013-03-06 16:47:00,34.2,30.2,30.02,East,99,8.0,21.0,85,0.02,,OVC021,0.10,25.00,VWS V14.01,2013-03-06 21:47:00,
2013-03-06 16:50:00,33.2,30.0,30.04,ENE,69,5.0,13.0,88,0.00,,OVC021,0.10,0.00,VWS V14.01,2013-03-06 21:50:00,
2013-03-06 16:52:00,34.3,30.3,30.02,East,94,6.0,19.0,85,0.02,,OVC021,0.10,19.00,VWS V14.01,2013-03-06 21:52:00,
2013-03-06 16:55:00,33.1,30.2,30.04,ENE,74,6.0,11.0,89,0.00,,OVC021,0.10,0.00,VWS V14.01,2013-03-06 21:55:00,
2013-03-06 16:58:00,34.4,30.1,30.02,ENE,69,11.0,18.0,84,0.02,,OVC021,0.10,18.00,VWS V14.01,2013-03-06 21:58:00,
2013-03-06 17:00:00,33.0,30.1,30.04,NE,55,10.0,17.0,89,0.00,,OVC021,0.10,0.00,VWS V14.01,2013-03-06 22:00:00,
2013-03-06 17:03:00,34.6,30.0,30.03,East,87,12.0,16.0,83,0.02,,OVC021,0.10,9.00,VWS V14.01,2013-03-06 22:03:00,
2013-03-06 17:05:00,33.2,30.3,30.04,East,84,6.0,16.0,89,0.01,,OVC021,0.11,0.00,VWS V14.01,2013-03-06 22:05:00,
2013-03-06 17:08:00,34.8,29.9,30.03,East,96,7.0,19.0,82,0.01,,OVC021,0.10,7.00,VWS V14.01,2013-03-06 22:08:00,
2013-03-06 17:10:00,33.4,30.5,30.03,NE,34,12.0,23.0,89,0.01,,OVC021,0.11,0.00,VWS V14.01,2013-03-06 22:10:00,
2013-03-06 17:13:00,34.7,30.1,30.03,East,90,12.0,14.0,83,0.01,,OVC021,0.10,9.00,VWS V14.01,2013-03-06 22:13:00,
2013-03-06 17:15:00,33.4,30.5,30.03,East,91,11.0,18.0,89,0.01,,OVC021,0.11,0.00,VWS V14.01,2013-03-06 22:15:00,
2013-03-06 17:18:00,34.7,30.1,30.04,East,97,15.0,24.0,83,0.01,,OVC021,0.10,7.00,VWS V14.01,2013-03-06 22:18:00,
2013-03-06 17:20:00,33.4,30.5,30.04,NE,51,14.0,17.0,89,0.01,,OVC021,0.11,0.00,VWS V14.01,2013-03-06 22:20:00,
2013-03-06 17:23:00,34.6,30.0,30.04,ENE,65,11.0,28.0,83,0.01,,OVC021,0.10,0.00,VWS V14.01,2013-03-06 22:23:00,
2013-03-06 17:25:00,33.2,30.3,30.03,NNE,18,9.0,25.0,89,0.01,,OVC021,0.11,0.00,VWS V14.01,2013-03-06 22:25:00,
2013-03-06 17:28:00,34.2,29.9,30.04,ENE,76,11.0,12.0,84,0.01,,OVC021,0.10,5.00,VWS V14.01,2013-03-06 22:28:00,
2013-03-06 17:30:00,33.2,30.3,30.03,ENE,67,17.0,20.0,89,0.01,,OVC021,0.11,0.00,VWS V14.01,2013-03-06 22:30:00,
2013-03-06 17:33:00,33.8,30.1,30.04,ENE,78,8.0,10.0,86,0.01,,OVC021,0.10,0.00,VWS V14.01,2013-03-06 22:33:00,
2013-03-06 17:35:00,33.1,30.5,30.02,NE,53,8.0,17.0,90,0.01,,OVC021,0.11,0.00,VWS V14.01,2013-03-06 22:35:00,
2013-03-06 17:38:00,33.5,30.0,30.04,NE,49,11.0,11.0,87,0.01,,OVC021,0.10,0.00,VWS V14.01,2013-03-06 22:38:00,
2013-03-06 17:40:00,33.3,30.4,30.02,NE,53,6.0,20.0,89,0.01,,OVC021,0.11,0.00,VWS V14.01,2013-03-06 22:40:00,
2013-03-06 17:44:00,33.4,30.2,30.04,ENE,57,7.0,13.0,88,0.00,,OVC021,0.10,0.00,VWS V14.01,2013-03-06 22:44:00,
2013-03-06 17:45:00,33.4,30.5,30.02,NNE,19,4.0,17.0,89,0.01,,OVC021,0.11,0.00,VWS V14.01,2013-03-06 22:45:00,
2013-03-06 17:49:00,33.2,30.0,30.04,ENE,63,5.0,7.0,88,0.00,,OVC021,0.10,0.00,VWS V14.01,2013-03-06 22:49:00,
2013-03-06 17:50:00,33.4,30.5,30.03,ENE,62,10.0,18.0,89,0.01,,OVC021,0.11,0.00,VWS V14.01,2013-03-06 22:50:00,
2013-03-06 17:54:00,33.1,30.2,30.04,ENE,74,6.0,8.0,89,0.00,,OVC021,0.10,0.00,VWS V14.01,2013-03-06 22:54:00,
2013-03-06 17:55:00,33.5,30.6,30.03,East,84,14.0,19.0,89,0.01,,OVC021,0.11,0.00,VWS V14.01,2013-03-06 22:55:00,
2013-03-06 17:59:00,33.0,30.1,30.04,East,82,10.0,13.0,89,0.00,,OVC021,0.10,0.00,VWS V14.01,2013-03-06 22:59:00,
2013-03-06 18:00:00,33.4,30.5,30.02,ENE,73,10.0,17.0,89,0.01,,OVC021,0.11,0.00,VWS V14.01,2013-03-06 23:00:00,
2013-03-06 18:04:00,33.2,30.3,30.04,NE,53,5.0,11.0,89,0.01,,OVC021,0.11,0.00,VWS V14.01,2013-03-06 23:04:00,
2013-03-06 18:05:00,33.5,30.6,30.03,NE,54,7.0,18.0,89,0.01,,OVC021,0.11,0.00,VWS V14.01,2013-03-06 23:05:00,
2013-03-06 18:09:00,33.4,30.5,30.03,NNE,33,2.0,13.0,89,0.01,,OVC021,0.11,0.00,VWS V14.01,2013-03-06 23:09:00,
2013-03-06 18:10:00,33.4,30.5,30.03,NE,35,7.0,20.0,89,0.00,,OVC021,0.11,0.00,VWS V14.01,2013-03-06 23:10:00,
2013-03-06 18:14:00,33.4,30.5,30.03,NNE,16,6.0,11.0,89,0.01,,OVC021,0.11,0.00,VWS V14.01,2013-03-06 23:14:00,
2013-03-06 18:15:00,33.4,30.5,30.03,NNE,26,6.0,13.0,89,0.00,,OVC021,0.11,0.00,VWS V14.01,2013-03-06 23:15:00,
2013-03-06 18:19:00,33.3,30.4,30.03,ENE,72,18.0,25.0,89,0.01,,OVC021,0.11,0.00,VWS V14.01,2013-03-06 23:19:00,
2013-03-06 18:20:00,33.5,30.6,30.04,East,79,24.0,24.0,89,0.00,,OVC021,0.11,0.00,VWS V14.01,2013-03-06 23:20:00,
2013-03-06 18:24:00,33.2,30.3,30.03,NE,38,12.0,20.0,89,0.01,,OVC021,0.11,0.00,VWS V14.01,2013-03-06 23:24:00,
2013-03-06 18:25:00,33.7,30.8,30.03,ENE,76,6.0,24.0,89,0.01,,OVC021,0.12,0.00,VWS V14.01,2013-03-06 23:25:00,
2013-03-06 18:29:00,33.1,30.2,30.03,NE,55,10.0,17.0,89,0.01,,OVC021,0.11,0.00,VWS V14.01,2013-03-06 23:29:00,
2013-03-06 18:30:00,33.7,30.5,30.04,ENE,69,5.0,20.0,88,0.01,,OVC021,0.12,0.00,VWS V14.01,2013-03-06 23:30:00,
2013-03-06 18:35:00,33.2,30.6,30.02,East,88,8.0,20.0,90,0.01,,OVC021,0.11,0.00,VWS V14.01,2013-03-06 23:35:00,
2013-03-06 18:40:00,33.4,30.5,30.03,NE,55,8.0,12.0,89,0.01,,OVC021,0.11,0.00,VWS V14.01,2013-03-06 23:40:00,
2013-03-06 18:45:00,33.4,30.5,30.02,ENE,76,8.0,17.0,89,0.01,,OVC021,0.11,0.00,VWS V14.01,2013-03-06 23:45:00,
2013-03-06 18:50:00,33.5,30.6,30.03,NNE,30,11.0,19.0,89,0.01,,OVC021,0.11,0.00,VWS V14.01,2013-03-06 23:50:00,
2013-03-06 18:55:00,33.5,30.6,30.03,ENE,76,10.0,17.0,89,0.01,,OVC021,0.11,0.00,VWS V14.01,2013-03-06 23:55:00,
2013-03-06 19:00:00,33.8,30.4,30.04,ENE,78,7.0,22.0,87,0.01,,OVC021,0.12,0.00,VWS V14.01,2013-03-07 00:00:00,
2013-03-06 19:05:00,34.0,30.3,30.04,NE,50,3.0,15.0,86,0.01,,OVC021,0.12,0.00,VWS V14.01,2013-03-07 00:05:00,
2013-03-06 19:10:00,34.0,30.3,30.04,East,88,10.0,23.0,86,0.01,,OVC021,0.12,0.00,VWS V14.01,2013-03-07 00:10:00,
2013-03-06 19:15:00,33.7,30.0,30.03,ENE,70,11.0,20.0,86,0.01,,OVC021,0.12,0.00,VWS V14.01,2013-03-07 00:15:00,
2013-03-06 19:20:00,33.7,30.0,30.03,NNE,19,19.0,19.0,86,0.01,,OVC021,0.12,0.00,VWS V14.01,2013-03-07 00:20:00,
2013-03-06 19:25:00,33.8,30.1,30.03,ENE,66,12.0,21.0,86,0.01,,OVC021,0.12,0.00,VWS V14.01,2013-03-07 00:25:00,
2013-03-06 19:30:00,33.7,30.0,30.03,NE,35,12.0,24.0,86,0.00,,OVC021,0.12,0.00,VWS V14.01,2013-03-07 00:30:00,
2013-03-06 19:35:00,33.7,29.7,30.03,ENE,65,10.0,24.0,85,0.00,,OVC021,0.12,0.00,VWS V14.01,2013-03-07 00:35:00,
2013-03-06 19:40:00,33.8,29.8,30.03,ENE,57,13.0,18.0,85,0.00,,OVC021,0.12,0.00,VWS V14.01,2013-03-07 00:40:00,
2013-03-06 19:45:00,33.8,31.5,30.03,NNE,19,3.0,18.0,91,0.00,,OVC021,0.12,0.00,VWS V14.01,2013-03-07 00:45:00,
2013-03-06 19:50:00,33.8,30.1,30.03,ENE,77,12.0,13.0,86,0.00,,OVC021,0.12,0.00,VWS V14.01,2013-03-07 00:50:00,
2013-03-06 19:55:00,33.8,30.4,30.02,NE,34,10.0,20.0,87,0.00,,OVC021,0.12,0.00,VWS V14.01,2013-03-07 00:55:00,
2013-03-06 20:00:00,33.8,30.4,30.02,ENE,67,12.0,17.0,87,0.00,,OVC021,0.12,0.00,VWS V14.01,2013-03-07 01:00:00,
2013-03-06 20:05:00,33.8,30.4,30.02,East,88,11.0,17.0,87,0.00,,OVC021,0.12,0.00,VWS V14.01,2013-03-07 01:05:00,
2013-03-06 20:10:00,33.9,30.2,30.02,East,96,15.0,16.0,86,0.00,,OVC021,0.12,0.00,VWS V14.01,2013-03-07 01:10:00,
2013-03-06 20:15:00,33.8,30.1,30.03,ENE,67,7.0,17.0,86,0.00,,OVC021,0.12,0.00,VWS V14.01,2013-03-07 01:15:00,
2013-03-06 20:20:00,33.6,29.9,30.03,NE,40,7.0,22.0,86,0.00,,OVC021,0.12,0.00,VWS V14.01,2013-03-07 01:20:00,
2013-03-06 20:25:00,33.3,29.9,30.02,ENE,67,10.0,18.0,87,0.00,,OVC021,0.12,0.00,VWS V14.01,2013-03-07 01:25:00,
2013-03-06 20:30:00,33.3,29.6,30.02,NE,55,7.0,17.0,86,0.00,,OVC021,0.12,0.00,VWS V14.01,2013-03-07 01:30:00,
2013-03-06 20:35:00,33.4,29.7,30.02,ENE,60,4.0,21.0,86,0.00,,OVC021,0.12,0.00,VWS V14.01,2013-03-07 01:35:00,
2013-03-06 20:40:00,33.3,29.9,30.02,ENE,62,6.0,15.0,87,0.00,,OVC021,0.12,0.00,VWS V14.01,2013-03-07 01:40:00,
2013-03-06 20:45:00,33.3,29.9,30.02,NE,44,11.0,18.0,87,0.00,,OVC021,0.12,0.00,VWS V14.01,2013-03-07 01:45:00,
2013-03-06 20:50:00,33.4,30.0,30.02,ENE,78,10.0,19.0,87,0.00,,OVC021,0.12,0.00,VWS V14.01,2013-03-07 01:50:00,
2013-03-06 20:55:00,33.4,30.0,30.01,NE,51,4.0,16.0,87,0.00,,OVC021,0.12,0.00,VWS V14.01,2013-03-07 01:55:00,
2013-03-06 21:00:00,33.5,29.8,30.01,NE,49,15.0,19.0,86,0.00,,OVC021,0.12,0.00,VWS V14.01,2013-03-07 02:00:00,
2013-03-06 21:05:00,33.8,29.5,30.01,ENE,76,12.0,15.0,84,0.00,,OVC021,0.12,0.00,VWS V14.01,2013-03-07 02:05:00,
2013-03-06 21:10:00,33.9,29.6,30.02,NE,42,6.0,22.0,84,0.00,,OVC021,0.12,0.00,VWS V14.01,2013-03-07 02:10:00,
2013-03-06 21:15:00,33.8,29.5,30.02,NE,46,3.0,19.0,84,0.00,,OVC021,0.12,0.00,VWS V14.01,2013-03-07 02:15:00,
2013-03-06 21:20:00,33.7,29.4,30.02,NE,42,6.0,21.0,84,0.00,,OVC021,0.12,0.00,VWS V14.01,2013-03-07 02:20:00,
2013-03-06 21:25:00,33.7,29.7,30.02,NE,51,8.0,17.0,85,0.00,,OVC021,0.12,0.00,VWS V14.01,2013-03-07 02:25:00,
2013-03-06 21:30:00,33.4,29.7,30.02,NE,42,5.0,18.0,86,0.00,,OVC021,0.12,0.00,VWS V14.01,2013-03-07 02:30:00,
2013-03-06 21:35:00,33.2,29.8,30.01,ESE,110,14.0,20.0,87,0.00,,OVC021,0.12,0.00,VWS V14.01,2013-03-07 02:35:00,
2013-03-06 21:40:00,33.1,29.7,30.02,ENE,70,8.0,18.0,87,0.00,,OVC021,0.12,0.00,VWS V14.01,2013-03-07 02:40:00,
2013-03-06 21:45:00,33.0,29.8,30.02,East,99,16.0,18.0,88,0.00,,OVC021,0.12,0.00,VWS V14.01,2013-03-07 02:45:00,
2013-03-06 21:50:00,33.0,29.6,30.02,ENE,68,10.0,16.0,87,0.00,,OVC021,0.12,0.00,VWS V14.01,2013-03-07 02:50:00,
2013-03-06 21:55:00,33.0,29.6,30.02,NE,55,13.0,17.0,87,0.00,,OVC021,0.12,0.00,VWS V14.01,2013-03-07 02:55:00,
2013-03-06 22:00:00,32.9,29.5,30.02,East,93,11.0,17.0,87,0.00,,OVC021,0.12,0.00,VWS V14.01,2013-03-07 03:00:00,
2013-03-06 22:05:00,32.7,29.5,30.02,East,79,6.0,16.0,88,0.00,,OVC021,0.12,0.00,VWS V14.01,2013-03-07 03:05:00,
2013-03-06 22:10:00,32.6,29.5,30.01,NE,56,5.0,12.0,88,0.00,,OVC021,0.12,0.00,VWS V14.01,2013-03-07 03:10:00,
2013-03-06 22:15:00,32.7,29.5,30.01,NNE,32,7.0,15.0,88,0.00,,OVC021,0.12,0.00,VWS V14.01,2013-03-07 03:15:00,
2013-03-06 22:20:00,32.8,29.6,30.01,East,86,4.0,22.0,88,0.00,,OVC021,0.12,0.00,VWS V14.01,2013-03-07 03:20:00,
2013-03-06 22:25:00,32.9,29.5,30.02,ENE,59,4.0,14.0,87,0.00,,OVC021,0.12,0.00,VWS V14.01,2013-03-07 03:25:00,
2013-03-06 22:30:00,33.0,29.6,30.01,ENE,67,3.0,14.0,87,0.00,,OVC021,0.12,0.00,VWS V14.01,2013-03-07 03:30:00,
2013-03-06 22:35:00,33.2,29.2,30.01,East,82,10.0,19.0,85,0.00,,OVC021,0.12,0.00,VWS V14.01,2013-03-07 03:35:00,
2013-03-06 22:40:00,33.7,29.1,30.01,NE,40,5.0,20.0,83,0.00,,OVC021,0.12,0.00,VWS V14.01,2013-03-07 03:40:00,
2013-03-06 22:45:00,33.7,29.1,30.01,NE,38,4.0,14.0,83,0.00,,OVC021,0.12,0.00,VWS V14.01,2013-03-07 03:45:00,
2013-03-06 22:50:00,33.6,29.0,30.01,NE,40,4.0,15.0,83,0.00,,OVC021,0.12,0.00,VWS V14.01,2013-03-07 03:50:00,
2013-03-06 22:55:00,33.6,29.0,30.01,ENE,69,10.0,14.0,83,0.00,,OVC021,0.12,0.00,VWS V14.01,2013-03-07 03:55:00,
2013-03-06 23:00:00,33.4,28.8,30.01,ENE,72,7.0,17.0,83,0.00,,OVC021,0.12,0.00,VWS V14.01,2013-03-07 04:00:00,
2013-03-06 23:05:00,33.7,28.8,30.02,NE,52,11.0,24.0,82,0.00,,OVC021,0.00,0.00,VWS V14.01,2013-03-07 04:05:00,
2013-03-06 23:10:00,33.7,28.5,30.02,NE,50,4.0,20.0,81,0.00,,OVC021,0.00,0.00,VWS V14.01,2013-03-07 04:10:00,
2013-03-06 23:15:00,33.8,28.3,30.02,ENE,76,11.0,14.0,80,0.00,,OVC021,0.00,0.00,VWS V14.01,2013-03-07 04:15:00,
2013-03-06 23:20:00,33.8,28.3,30.02,ENE,73,5.0,13.0,80,0.00,,OVC021,0.00,0.00,VWS V14.01,2013-03-07 04:20:00,
2013-03-06 23:25:00,33.8,28.3,30.02,ENE,57,6.0,15.0,80,0.00,,OVC021,0.00,0.00,VWS V14.01,2013-03-07 04:25:00,
2013-03-06 23:30:00,33.8,28.3,30.02,ENE,65,11.0,15.0,80,0.00,,OVC021,0.00,0.00,VWS V14.01,2013-03-07 04:30:00,
2013-03-06 23:35:00,34.0,27.9,30.02,East,89,4.0,20.0,78,0.00,,OVC021,0.00,0.00,VWS V14.01,2013-03-07 04:35:00,
2013-03-06 23:40:00,34.2,27.8,30.02,East,92,5.0,19.0,77,0.00,,OVC021,0.00,0.00,VWS V14.01,2013-03-07 04:40:00,
2013-03-06 23:45:00,34.2,27.4,30.02,ENE,64,7.0,17.0,76,0.00,,OVC021,0.00,0.00,VWS V14.01,2013-03-07 04:45:00,
2013-03-06 23:50:00,34.2,27.8,30.02,NE,46,15.0,15.0,77,0.00,,OVC021,0.00,0.00,VWS V14.01,2013-03-07 04:50:00,
2013-03-06 23:55:00,34.1,27.7,30.01,NE,44,10.0,17.0,77,0.00,,OVC021,0.00,0.00,VWS V14.01,2013-03-07 04:55:00,